Terug naar catalogus

CZ-6A DEB

ActiefSSO
NORAD 55521·DEBRIS·🇨🇳 China

Gelanceerd Nov 11, 2022 vanaf Taiyuan Satellite Launch Center

Loading…

Volgende Passages (komende 24 uur)

TLE

VersSource: Space-Track

Epoch: Sep 14, 2026, 11:09 UTC

1 55521U 22151XT  26257.46511336  .00000184  00000-0  13011-3 0  9992
2 55521  98.8685 253.7796 0057473  93.8753 266.8991 14.08639748192108

Volg CZ-6A DEB in realtime met AllMySat

Download on the App Store